Hlavní strana
METAR-TAF:

METAR-TAF

Letiště :

Logan County Airport

Lincoln, Illinois, Spojené státy americké

zeměpisná šířka: 40-09-31N, zeměpisná délka: 089-20-06W, výška: 182 m

Aktuální stav počasí

Zpráva byla vytvořena před 28 minutami, v 10:55 UTC
Bezvětří
Teplota 1°C
Vlhkost vzduchu 93%
Tlak 1009 hPa
Viditelnost: 2.4 km
Zataženo ve výšce 200 ft
kouřmo

METAR: KAAA 241055Z AUTO 00000KT 1 1/2SM BR OVC002 01/00 A2981 RMK AO2 T00120000

Čas: 05:23 (11:23 UTC)


TAF: chybějící

Stav a předpovědi počasí z více než 4 000 letišť (zprávy METAR a TAF).

Červené a žluté tečky na mapě představují dostupné meteorologické stanice.

Když kurzor umístíte na tečku, zobrazí se název stanice.

Pak kliknutím zobrazíte stav a předpověď počasí.

Chcete-li změnit mapu, kliknutím na zelené tlačítko se znaménkem +mapu přiblížíte, kliknutím na zelené tlačítko se znaménkem – mapu oddálíte a kliknutím na zelené šipky přejdete na sousední mapy.


METAR-TAF: